GAOFEN DUOMO (GFDM)

导读

GAOFEN DUOMO(GFDM,高分多模综合成像卫星)是中国于2020年7月3日在太原卫星发射中心,通过长征四号乙运载火箭成功发射的民用光学遥感卫星,也是国家民用空间基础设施规划中分辨率最高的光学遥感卫星。 它运行于太阳同步轨道,具备亚米级分辨率,支持多种成像模式切换,可广泛服务于测绘、农业、环保、应急减灾等多个领域,满足高精度遥感影像数据需求,对提升我国对地观测能力具有重要意义。

基本信息
目录编号:
45856
目录名称:
GAOFEN DUOMO (GFDM)
国际标识:
2020-042A
轨道中心:
EARTH
卫星名称:
GAOFEN DUOMO (GFDM)
卫星全名:
--
卫星状态:
在轨 (已飞行2215 天)
发射日期:
2020-07-03 UTC
国别 :
中国 (CN)
星等 :
--
轨道信息
数据来源 国际轨道数据 AOE轨道数据
星历时间 2026-07-27T22:06:14+0800
8小时前
查看轨道信息
2026-07-25T05:00:00+0800
3天前
查看轨道信息
半长轴 7017.53km 7017.532km
偏心率 0.0009783 0.0009788
轨道倾角 97.773° 97.775°
近地点辐角 310.700° 319.963°
升交点赤经 266.998° 264.386°
平近点角 49.336° 26.907°
近地点 632.527km 632.526km
远地点 646.259km 646.264km
周期 97.507分钟 97.507分钟
每日圈数 14.768159 14.768153
详细信息
使用方式:
暂无
2D轨道图
3D轨道图
轨道高度分析图
轨道倾角分析图
轨道综合分析图
查看轨道综合分析图